星链-6060 (STARLINK-6060 )

导读 | 星芒AI

STARLINK-6060 是 SpaceX Starlink 卫星互联网项目中的一颗低轨卫星,属于第60组发射任务中的成员。该卫星旨在为全球用户提供高速、低延迟的宽带互联网服务,尤其覆盖传统网络难以到达的地区。它运行在约550公里高的近地轨道,采用先进通信技术,支持全球范围内的数据传输。Starlink 项目计划部署数千颗卫星,构建一个高效的全球通信网络,推动互联网普及与数字连接。

基本信息
目录编号:
56794
目录名称:
STARLINK-6060
国际标识:
2023-078AD
轨道中心:
EARTH
卫星名称:
星链-6060
卫星全名:
星链-6060 (STARLINK-6060 )
卫星状态:
在轨 (已飞行888 天)
发射日期:
2023-05-31 UTC
国别 :
美国 (US)
星等 :
--
轨道信息
数据来源 国际轨道数据 AOE轨道数据
星历时间 2025-11-04T04:00:03+0800
10小时前
查看轨道信息
2025-11-03T08:00:00+0800
1天前
查看轨道信息
半长轴 6950.282km 6950.182km
偏心率 0.0003258 0.000341
轨道倾角 70.000° 69.997°
近地点辐角 267.324° 271.883°
升交点赤经 281.761° 283.860°
平近点角 31.982° 213.507°
近地点 569.882km 569.676km
远地点 574.412km 574.418km
周期 96.109分钟 96.107分钟
每日圈数 14.983014 14.983336
详细信息
固有亮度:
5
最大亮度:
2.5
卫星平台:
Starlink v1.5
覆盖范围:
全球
运营商:
太空探索技术公司
运营商所在国:
美国
制造商(研发单位):
太空探索技术公司
制造商所在国:
美国
使用方式:
暂无
卫星简介
星链(Starlink)计划是由太空探索技术公司(SpaceX)提出的一个巨型低轨卫星互联网星座项目,计划在2019年至2024年间在太空搭建由约1.2万颗卫星组成的“星链”网络,其中1584颗将部署在地球上空550千米处的近地轨道,并从2020年开始工作。该卫星仍在工作。
2D轨道图
3D轨道图
轨道高度分析图
轨道倾角分析图
轨道综合分析图
查看轨道综合分析图